Regional Weather Roundup
Issued by NWS Green Bay, WI

Home | Current Version | Previous Version | Graphics & Text | Print | Product List | Glossary Off
Versions: 1 2 3 4 5 6 7 8 9 10 11 12 13 14 15 16 17 18 19 20 21 22 23 24 25 26 27 28 29 30 31 32 33 34 35 36 37 38 39 40 41 42 43 44 45 46 47 48 49 50

000
ASUS43 KGRB 300259
RWRGRB

NORTH-CENTRAL AND NORTHEAST WISCONSIN REGIONAL WEATHER ROUNDUP
NATIONAL WEATHER SERVICE GREEN BAY WI
1000 PM CDT SUN MAR 29 2015

WIZ005-009-010>012-018-019-300400-
NORTH CENTRAL WISCONSIN

CITY           SKY/WX    TMP DP  RH WIND       PRES   REMARKS
IRONWOOD       PTCLDY    37  28  70 W9        29.76R
MANITOWISH WTR NOT AVBL
ARBOR VITAE    NOT AVBL
EAGLE RIVER    NOT AVBL
LAND O LAKES   NOT AVBL
RHINELANDER    CLOUDY    36  30  79 NW10      29.78R
PHILLIPS       NOT AVBL
ANTIGO         NOT AVBL
TOMAHAWK       NOT AVBL
MERRILL        NOT AVBL
$$

WIZ013-073-300400-
NORTHEAST WISCONSIN

CITY           SKY/WX    TMP DP  RH WIND       PRES   REMARKS
IRON MOUNTAIN  MOCLDY    37  29  72 NW24G39   29.67R
MARINETTE      CLOUDY    39  30  70 NW12G20   29.70R
$$

WIZ017-030-035>037-045-300400-
CENTRAL WISCONSIN

CITY           SKY/WX    TMP DP  RH WIND       PRES   REMARKS
MEDFORD        NOT AVBL
WAUSAU         CLOUDY    38  31  76 NW9       29.80R
MOSINEE        CLOUDY    36  32  87 NW9G17    29.83R
MARSHFIELD     CLEAR     37  30  75 W7        29.84R
WISC RAPIDS    CLEAR     36  29  75 W5        29.86R
STEVENS POINT  NOT AVBL
WAUPACA        NOT AVBL
SHAWANO        NOT AVBL
CLINTONVILLE   NOT AVBL
$$

WIZ038-039-048-051-300400-
FOX VALLEY

CITY           SKY/WX    TMP DP  RH WIND       PRES   REMARKS
NWS GREEN BAY  CLOUDY    39  32  76 W14       29.78R
APPLETON       MOCLDY    39  30  70 W15G23    29.81R
OSHKOSH        MOCLDY    40  29  64 W10       29.82R
FOND DU LAC    CLOUDY    41  30  65 NW12      29.84R
$$

WIZ022-050-052-300400-
EAST CENTRAL WISCONSIN

CITY           SKY/WX    TMP DP  RH WIND       PRES   REMARKS
STURGEON BAY   CLOUDY    37  30  75 W13       29.74R
MANITOWOC      NOT AVBL
SHEBOYGAN      MOCLDY    40  31  70 NW17G24   29.80R
$$

LMZ563-521-522-541>543-300400-
LAKESHORE

STATION/POSITION TIME  TEMP    WIND        PRES    VSBY  WAVE
                       AIR SEA DIR/SP/G                  HT/PER
                 (UTC) (F)     (DEG/KT/KT) (MB)    (MI)  (FT/S)
SHEBOYGAN LKSHOR 0200   42     290/ 15/ 17 1008.5R
KEWAUNEE LKSHORE 0200   41     290/ 14/ 22 1005.4R
NORTHPORT PIER   0200   38     290/  9/ 17 1004.4R
CHAMBERS ISLAND  0200   37     240/  4/  9 1005.4R
MENOMINEE LKSHOR 0200   40     280/ 10     1006.0R
$$



USA.gov is the U.S. government's official web portal to all federal, state and local government web resources and services.